This demonstration page uses our WeatherBlox Daily Observations layout. Learn more.

Left ArrowRight Arrow

39.51506, -84.39828

Hourly Observations for March 15, 2020

Temp ( °F °C ) Dew Point ( °F °C ) Humidity (%) Winds ( mph kmh ) Pressure ( in mb ) Visibility ( mi km ) Precip ( " mm )
12:15 am 00:15 Cloudy 35 1.5 33 0.4 92 92 NNE 10 17 30.47 1032 10 16.0934 0 0
12:35 am 00:35 Cloudy 35 1.6 33 0.3 91 91 NNE 10 17 30.46 1032 10 16.0934 0 0
12:55 am 00:55 Cloudy 35 1.6 33 0.3 91 91 NE 12 19 30.46 1032 10 16.0934 0 0
1:15 am 01:15 Cloudy 35 1.6 32 0 89 89 NE 10 17 30.47 1032 10 16.0934 0 0
1:35 am 01:35 Cloudy 35 1.5 32 -0.1 89 89 NE 10 17 30.47 1032 10 16.0934 0 0
1:55 am 01:55 Cloudy 35 1.4 31 -0.3 89 89 NNE 10 17 30.47 1032 10 16.0934 0 0
2:15 am 02:15 Cloudy 34 1.1 31 -0.8 87 87 NE 12 19 30.48 1032 10 16.0934 0 0
2:35 am 02:35 Cloudy 34 1.1 31 -0.8 87 87 NNE 8 13 30.48 1032 10 16.0934 0 0
2:55 am 02:55 Cloudy 34 0.9 30 -1.1 87 87 NNE 12 19 30.48 1032 10 16.0934 0 0
3:15 am 03:15 Cloudy 33 0.8 30 -1 88 88 NNE 8 13 30.49 1033 10 16.0934 0 0
3:35 am 03:35 Cloudy 33 0.8 30 -1 88 88 NNE 10 17 30.5 1033 10 16.0934 0 0
3:55 am 03:55 Cloudy 33 0.7 30 -1.2 87 87 NNE 12 19 30.5 1033 10 16.0934 0 0
4:15 am 04:15 Cloudy 33 0.7 30 -1.3 87 87 NNE 13 20 30.51 1033 10 16.0934 0 0
4:35 am 04:35 Cloudy 33 0.7 30 -1.3 87 87 NNE 9 15 30.5 1033 10 16.0934 0 0
4:55 am 04:55 Cloudy 33 0.7 29 -1.5 85 85 NNE 9 15 30.51 1033 10 16.0934 0 0
5:15 am 05:15 Cloudy 33 0.7 29 -1.6 85 85 NNE 12 19 30.51 1033 10 16.0934 0 0
5:35 am 05:35 Cloudy 33 0.7 29 -1.7 84 84 NNE 8 13 30.52 1034 10 16.0934 0 0
5:55 am 05:55 Cloudy 33 0.7 29 -1.5 85 85 NNE 10 17 30.51 1033 10 16.0934 0 0
6:15 am 06:15 Cloudy 33 0.7 29 -1.4 86 86 NNE 10 17 30.52 1034 10 16.0934 0 0
6:35 am 06:35 Cloudy 33 0.8 29 -1.4 85 85 NNE 9 15 30.52 1034 10 16.0934 0 0
6:55 am 06:55 Cloudy 34 0.9 30 -1.3 85 85 NE 6 9 30.53 1034 10 16.0934 0 0
7:15 am 07:15 Cloudy 33 0.8 30 -1.3 86 86 NNE 8 13 30.53 1034 10 16.0934 0 0
7:35 am 07:35 Cloudy 33 0.8 30 -1.3 86 86 NE 8 13 30.53 1034 10 16.0934 0 0
7:55 am 07:55 Cloudy 34 0.9 29 -1.5 84 84 NNE 6 9 30.54 1034 10 16.0934 0 0
8:15 am 08:15 Cloudy 34 0.9 29 -1.8 82 82 NNE 10 17 30.55 1035 10 16.0934 0 0
8:35 am 08:35 Cloudy 34 0.9 29 -1.8 82 82 NNE 10 17 30.56 1035 10 16.0934 0 0
8:55 am 08:55 Cloudy 34 1 29 -1.7 82 82 NNE 9 15 30.56 1035 10 16.0934 0 0
9:15 am 09:15 Cloudy 34 1.1 29 -1.9 81 81 NNE 12 19 30.57 1035 10 16.0934 0 0
9:35 am 09:35 Cloudy 34 1.3 28 -2 79 79 NE 13 20 30.58 1036 10 16.0934 0 0
9:55 am 09:55 Cloudy 34 1.3 29 -1.8 80 80 NNE 13 20 30.58 1036 10 16.0934 0 0
10:15 am 10:15 Cloudy 35 1.5 29 -1.9 78 78 NE 14 22 30.58 1036 10 16.0934 0 0
10:35 am 10:35 Cloudy 35 1.9 29 -1.7 77 77 NNE 12 19 30.59 1036 10 16.0934 0 0
10:55 am 10:55 Mostly Cloudy 37 2.6 29 -1.4 75 75 ENE 13 20 30.6 1036 10 16.0934 0 0
11:15 am 11:15 Mostly Cloudy 37 2.5 29 -1.6 75 75 NE 10 17 30.59 1036 10 16.0934 0 0
11:35 am 11:35 Partly Cloudy 39 3.9 30 -1.2 70 70 ENE 12 19 30.59 1036 10 16.0934 0 0
11:55 am 11:55 Cloudy 39 3.7 29 -1.6 69 69 NE 9 15 30.59 1036 10 16.0934 0 0
12:15 pm 12:15 Cloudy 40 4.4 30 -1 68 68 N 5 7 30.58 1036 10 16.0934 0 0
12:35 pm 12:35 Partly Cloudy 40 4.3 29 -1.6 66 66 ENE 3 6 30.58 1036 10 16.0934 0 0
12:55 pm 12:55 Mostly Cloudy 42 5.6 31 -0.7 64 64 N 12 19 30.57 1035 10 16.0934 0 0
1:15 pm 13:15 Cloudy 43 6.1 31 -0.4 63 63 N 7 11 30.57 1035 10 16.0934 0 0
1:35 pm 13:35 Cloudy 42 5.7 31 -0.8 63 63 N 7 11 30.57 1035 10 16.0934 0 0
1:55 pm 13:55 Cloudy 42 5.6 31 -0.6 65 65 NNE 9 15 30.56 1035 10 16.0934 0 0
2:15 pm 14:15 Cloudy 42 5.8 31 -0.5 64 64 NNE 10 17 30.56 1035 10 16.0934 0 0
2:35 pm 14:35 Cloudy 42 5.5 31 -0.7 65 65 NNE 12 19 30.55 1035 10 16.0934 0 0
2:55 pm 14:55 Cloudy 42 5.5 31 -0.7 65 65 N 12 19 30.54 1034 10 16.0934 0 0
3:15 pm 15:15 Cloudy 43 5.9 31 -0.3 65 65 ENE 9 15 30.54 1034 10 16.0934 0 0
3:35 pm 15:35 Cloudy 42 5.8 31 -0.4 65 65 NNE 10 17 30.53 1034 10 16.0934 0 0
3:55 pm 15:55 Cloudy 43 6.2 32 -0.1 64 64 NE 10 17 30.52 1033 10 16.0934 0 0
4:15 pm 16:15 Cloudy 43 6.3 31 -0.3 63 63 ENE 10 17 30.52 1033 10 16.0934 0 0
4:35 pm 16:35 Cloudy 43 6.1 31 -0.4 63 63 ENE 10 17 30.52 1033 10 16.0934 0 0
4:55 pm 16:55 Cloudy 43 6 31 -0.3 64 64 NE 12 19 30.52 1034 10 16.0934 0 0
5:15 pm 17:15 Cloudy 43 6.2 31 -0.6 62 62 NNE 12 19 30.52 1033 10 16.0934 0 0
5:35 pm 17:35 Cloudy 44 6.5 31 -0.6 61 61 NNE 12 19 30.51 1033 10 16.0934 0 0
5:55 pm 17:55 Cloudy 44 6.5 31 -0.6 61 61 NNE 10 17 30.51 1033 10 16.0934 0 0
6:15 pm 18:15 Cloudy 44 6.6 31 -0.5 61 61 NE 8 13 30.51 1033 10 16.0934 0 0
6:35 pm 18:35 Cloudy 44 6.6 32 -0.2 62 62 NNE 8 13 30.51 1033 10 16.0934 0 0
6:55 pm 18:55 Cloudy 44 6.5 31 -0.3 62 62 ENE 10 17 30.51 1033 10 16.0934 0 0
7:15 pm 19:15 Cloudy 43 6.3 31 -0.4 63 63 NNE 7 11 30.51 1033 10 16.0934 0 0
7:35 pm 19:35 Cloudy 43 6.2 32 0 65 65 NNE 7 11 30.51 1033 10 16.0934 0 0
7:55 pm 19:55 Cloudy 43 6.1 32 0.1 66 66 NNE 7 11 30.52 1033 10 16.0934 0 0
8:15 pm 20:15 Cloudy 43 6.1 32 0.1 66 66 NNE 7 11 30.51 1033 10 16.0934 0 0
8:35 pm 20:35 Cloudy 43 6.1 32 0.2 66 66 NE 7 11 30.52 1033 10 16.0934 0 0
8:55 pm 20:55 Cloudy 43 6.1 32 0.1 66 66 NE 8 13 30.51 1033 10 16.0934 0 0
9:15 pm 21:15 Cloudy 42 5.8 32 0.2 68 68 NE 10 17 30.51 1033 10 16.0934 0 0
9:35 pm 21:35 Cloudy 42 5.6 33 0.3 69 69 NE 9 15 30.51 1033 10 16.0934 0 0
9:55 pm 21:55 Cloudy 42 5.5 33 0.5 71 71 NE 10 17 30.5 1033 10 16.0934 0 0
10:15 pm 22:15 Cloudy 42 5.4 33 0.4 70 70 NNE 12 19 30.51 1033 10 16.0934 0 0
10:35 pm 22:35 Cloudy 42 5.3 32 0.2 70 70 NE 8 13 30.5 1033 10 16.0934 0 0
10:55 pm 22:55 Cloudy 41 5.1 33 0.4 72 72 NE 8 13 30.5 1033 10 16.0934 0 0
11:15 pm 23:15 Cloudy 41 5.1 33 0.4 72 72 NNE 6 9 30.5 1033 10 16.0934 0 0
11:35 pm 23:35 Cloudy 41 5 33 0.4 72 72 NNE 7 11 30.5 1033 10 16.0934 0 0
11:55 pm 23:55 Cloudy 41 4.9 33 0.4 73 73 NNE 7 11 30.5 1033 10 16.0934 0 0

Powered by AerisWeather